WAT691 EGYP-SCCI

Flight info

Callsign WAT691
Flight time 1h 59m
Altitude 40000
Route DIGIS DCT BAPOS
Aircraft C525/L-SDFGRWY/S

Departure

Time 2026-04-21 15:11
Airport Mount Pleasant Airport / RAF Mount Pleasant (EGYP)

Arrival

Time 2026-04-21 17:10
Airport President Carlos Ibáñez International Airport (SCCI)
Time Latitude Longitude Altitude Speed Heading
2026-04-21 15:05 -51.82004 -58.44873 234 ft 0 kts 330°
2026-04-21 15:06 -51.82002 -58.44874 234 ft 1 kts 323°
2026-04-21 15:06 -51.82001 -58.44877 234 ft 0 kts 307°
2026-04-21 15:06 -51.82002 -58.44904 234 ft 5 kts 234°
2026-04-21 15:07 -51.82041 -58.44901 234 ft 6 kts 119°
2026-04-21 15:07 -51.82056 -58.44832 233 ft 6 kts 109°
2026-04-21 15:07 -51.82069 -58.44759 231 ft 6 kts 105°
2026-04-21 15:07 -51.82081 -58.44686 230 ft 7 kts 104°
2026-04-21 15:08 -51.82093 -58.44606 229 ft 7 kts 100°
2026-04-21 15:08 -51.82106 -58.44527 227 ft 8 kts 106°
2026-04-21 15:08 -51.82124 -58.44437 226 ft 8 kts 107°
2026-04-21 15:08 -51.82155 -58.44365 225 ft 8 kts 164°
2026-04-21 15:09 -51.82181 -58.44387 225 ft 7 kts 229°
2026-04-21 15:09 -51.82209 -58.44449 226 ft 6 kts 236°
2026-04-21 15:09 -51.82230 -58.44499 226 ft 4 kts 236°
2026-04-21 15:10 -51.82253 -58.44550 227 ft 6 kts 233°
2026-04-21 15:10 -51.82266 -58.44599 228 ft 2 kts 276°
2026-04-21 15:10 -51.82265 -58.44608 228 ft 0 kts 281°
2026-04-21 15:10 -51.82241 -58.44756 230 ft 42 kts 284°
2026-04-21 15:11 -51.82105 -58.45564 242 ft 105 kts 283°
2026-04-21 15:11 -51.81882 -58.46858 519 ft 129 kts 295°
2026-04-21 15:11 -51.81623 -58.48218 1215 ft 127 kts 294°
2026-04-21 15:11 -51.81595 -58.49606 1899 ft 137 kts 264°
2026-04-21 15:12 -51.81963 -58.51080 2495 ft 149 kts 259°
2026-04-21 15:12 -51.82293 -58.52706 3042 ft 161 kts 264°
2026-04-21 15:12 -51.82490 -58.54585 3486 ft 180 kts 270°
2026-04-21 15:12 -51.82591 -58.56683 3904 ft 200 kts 272°
2026-04-21 15:13 -51.82655 -58.59015 4316 ft 218 kts 272°
2026-04-21 15:13 -51.82713 -58.61553 4724 ft 233 kts 271°
2026-04-21 15:13 -51.82778 -58.64256 5129 ft 246 kts 271°
2026-04-21 15:13 -51.82844 -58.67033 5524 ft 256 kts 271°
2026-04-21 15:14 -51.82917 -58.69977 5923 ft 265 kts 271°
2026-04-21 15:14 -51.82993 -58.72968 6339 ft 271 kts 271°
2026-04-21 15:14 -51.83069 -58.75709 8050 ft 227 kts 271°
2026-04-21 15:14 -51.83133 -58.78162 8796 ft 222 kts 271°
2026-04-21 15:15 -51.83189 -58.80605 9459 ft 221 kts 271°
2026-04-21 15:15 -51.83243 -58.83052 10059 ft 222 kts 271°
2026-04-21 15:15 -51.83299 -58.85544 10659 ft 222 kts 271°
2026-04-21 15:15 -51.83356 -58.88025 11199 ft 224 kts 271°
2026-04-21 15:16 -51.83414 -58.90537 11754 ft 225 kts 271°
2026-04-21 15:16 -51.83471 -58.93062 12288 ft 226 kts 271°
2026-04-21 15:16 -51.83528 -58.95590 12819 ft 227 kts 271°
2026-04-21 15:16 -51.83585 -58.98122 13296 ft 229 kts 271°
2026-04-21 15:17 -51.83643 -59.00703 13813 ft 229 kts 271°
2026-04-21 15:17 -51.83699 -59.03266 14278 ft 231 kts 271°
2026-04-21 15:17 -51.83755 -59.05853 14706 ft 234 kts 272°
2026-04-21 15:17 -51.83812 -59.08476 15192 ft 233 kts 272°
2026-04-21 15:18 -51.83868 -59.11089 15612 ft 235 kts 271°
2026-04-21 15:18 -51.83923 -59.13734 16007 ft 237 kts 271°
2026-04-21 15:18 -51.83978 -59.16421 16387 ft 244 kts 271°
2026-04-21 15:18 -51.84035 -59.19197 16767 ft 251 kts 271°
2026-04-21 15:19 -51.84092 -59.22024 17143 ft 257 kts 271°
2026-04-21 15:19 -51.84150 -59.24920 17520 ft 262 kts 271°
2026-04-21 15:19 -51.84209 -59.27888 17897 ft 266 kts 271°
2026-04-21 15:19 -51.84267 -59.30905 18270 ft 270 kts 271°
2026-04-21 15:20 -51.84326 -59.33933 18648 ft 273 kts 271°
2026-04-21 15:20 -51.84385 -59.36988 19022 ft 275 kts 271°
2026-04-21 15:20 -51.84444 -59.40065 19398 ft 276 kts 271°
2026-04-21 15:20 -51.84503 -59.43185 19777 ft 277 kts 271°
2026-04-21 15:21 -51.84561 -59.46282 20150 ft 278 kts 271°
2026-04-21 15:21 -51.84618 -59.49381 20527 ft 279 kts 271°
2026-04-21 15:21 -51.84674 -59.52522 20905 ft 279 kts 271°
2026-04-21 15:21 -51.84729 -59.55643 21277 ft 279 kts 271°
2026-04-21 15:22 -51.84783 -59.58749 21653 ft 278 kts 271°
2026-04-21 15:22 -51.84836 -59.61876 22036 ft 277 kts 271°
2026-04-21 15:22 -51.84888 -59.64944 22410 ft 277 kts 271°
2026-04-21 15:22 -51.84939 -59.68067 22798 ft 276 kts 272°
2026-04-21 15:23 -51.84989 -59.71135 23177 ft 276 kts 272°
2026-04-21 15:23 -51.85038 -59.74224 23557 ft 275 kts 272°
2026-04-21 15:23 -51.85086 -59.77272 23930 ft 274 kts 272°
2026-04-21 15:23 -51.85134 -59.80358 24302 ft 273 kts 272°
2026-04-21 15:24 -51.85180 -59.83401 24679 ft 272 kts 272°
2026-04-21 15:24 -51.85226 -59.86430 25050 ft 271 kts 272°
2026-04-21 15:24 -51.85270 -59.89449 25430 ft 270 kts 272°
2026-04-21 15:24 -51.85313 -59.92455 25800 ft 268 kts 272°
2026-04-21 15:25 -51.85356 -59.95445 26178 ft 267 kts 272°
2026-04-21 15:25 -51.85397 -59.98424 26555 ft 266 kts 272°
2026-04-21 15:25 -51.85438 -60.01401 26933 ft 264 kts 272°
2026-04-21 15:25 -51.85478 -60.04359 27314 ft 262 kts 272°
2026-04-21 15:26 -51.85516 -60.07247 27683 ft 260 kts 272°
2026-04-21 15:26 -51.85554 -60.10175 28063 ft 258 kts 273°
2026-04-21 15:26 -51.85590 -60.13031 28440 ft 256 kts 272°
2026-04-21 15:26 -51.85626 -60.15899 28821 ft 254 kts 273°
2026-04-21 15:27 -51.85661 -60.18735 29198 ft 252 kts 273°
2026-04-21 15:27 -51.85694 -60.21526 29576 ft 249 kts 273°
2026-04-21 15:27 -51.85727 -60.24288 29953 ft 246 kts 273°
2026-04-21 15:27 -51.85759 -60.27062 30343 ft 244 kts 273°
2026-04-21 15:28 -51.85790 -60.29779 30746 ft 241 kts 273°
2026-04-21 15:28 -51.85820 -60.32462 31149 ft 237 kts 273°
2026-04-21 15:28 -51.85848 -60.35082 31550 ft 234 kts 273°
2026-04-21 15:28 -51.85876 -60.37696 31955 ft 231 kts 273°
2026-04-21 15:29 -51.85902 -60.40270 32364 ft 227 kts 273°
2026-04-21 15:29 -51.85928 -60.42789 32770 ft 223 kts 273°
2026-04-21 15:29 -51.85953 -60.45260 33171 ft 219 kts 273°
2026-04-21 15:29 -51.85976 -60.47718 33472 ft 219 kts 274°
2026-04-21 15:30 -51.85998 -60.50173 33750 ft 219 kts 274°
2026-04-21 15:30 -51.86019 -60.52628 34023 ft 219 kts 273°
2026-04-21 15:30 -51.86040 -60.55092 34299 ft 219 kts 274°
2026-04-21 15:30 -51.86061 -60.57538 34578 ft 219 kts 274°
2026-04-21 15:31 -51.86082 -60.60010 34814 ft 219 kts 273°
2026-04-21 15:31 -51.86103 -60.62485 35049 ft 219 kts 273°
2026-04-21 15:31 -51.86124 -60.64949 35289 ft 219 kts 273°
2026-04-21 15:31 -51.86144 -60.67389 35529 ft 219 kts 274°
2026-04-21 15:32 -51.86163 -60.69861 35767 ft 219 kts 274°
2026-04-21 15:32 -51.86182 -60.72333 36004 ft 219 kts 274°
2026-04-21 15:32 -51.86200 -60.74796 36242 ft 218 kts 275°
2026-04-21 15:32 -51.86218 -60.77220 36480 ft 217 kts 274°
2026-04-21 15:33 -51.86235 -60.79670 36759 ft 216 kts 275°
2026-04-21 15:33 -51.86252 -60.82072 37060 ft 215 kts 275°
2026-04-21 15:33 -51.86269 -60.84499 37373 ft 213 kts 274°
2026-04-21 15:33 -51.86284 -60.86878 37683 ft 211 kts 275°
2026-04-21 15:34 -51.86299 -60.89243 37995 ft 209 kts 275°
2026-04-21 15:34 -51.86314 -60.91600 38312 ft 206 kts 274°
2026-04-21 15:34 -51.86327 -60.93883 38621 ft 203 kts 275°
2026-04-21 15:34 -51.86340 -60.96150 38927 ft 200 kts 275°
2026-04-21 15:35 -51.86353 -60.98380 39234 ft 196 kts 275°
2026-04-21 15:35 -51.86366 -61.00567 39512 ft 192 kts 275°
2026-04-21 15:35 -51.86377 -61.02685 39795 ft 187 kts 275°
2026-04-21 15:35 -51.86385 -61.04798 39766 ft 194 kts 275°
2026-04-21 15:36 -51.86390 -61.07001 39800 ft 198 kts 275°
2026-04-21 15:36 -51.86395 -61.09242 39801 ft 203 kts 275°
2026-04-21 15:36 -51.86401 -61.11578 39802 ft 209 kts 275°
2026-04-21 15:36 -51.86409 -61.13961 39797 ft 216 kts 275°
2026-04-21 15:37 -51.86418 -61.16411 39799 ft 222 kts 274°
2026-04-21 15:37 -51.86428 -61.18925 39800 ft 228 kts 274°
2026-04-21 15:37 -51.86438 -61.21514 39798 ft 234 kts 274°
2026-04-21 15:37 -51.86447 -61.24173 39793 ft 240 kts 274°
2026-04-21 15:38 -51.86456 -61.26905 39798 ft 246 kts 274°
2026-04-21 15:38 -51.86463 -61.29676 39784 ft 253 kts 274°
2026-04-21 15:38 -51.86470 -61.32580 39785 ft 259 kts 274°
2026-04-21 15:38 -51.86477 -61.35492 39781 ft 264 kts 274°
2026-04-21 15:39 -51.86483 -61.38504 39778 ft 270 kts 274°
2026-04-21 15:39 -51.86489 -61.41538 39780 ft 275 kts 274°
2026-04-21 15:39 -51.86494 -61.44634 39781 ft 280 kts 274°
2026-04-21 15:39 -51.86499 -61.47834 39777 ft 284 kts 274°
2026-04-21 15:40 -51.86503 -61.51039 39779 ft 289 kts 274°
2026-04-21 15:40 -51.86505 -61.54287 39778 ft 293 kts 274°
2026-04-21 15:40 -51.86506 -61.57653 39781 ft 297 kts 274°
2026-04-21 15:40 -51.86507 -61.60980 39782 ft 300 kts 274°
2026-04-21 15:41 -51.86505 -61.67844 39787 ft 307 kts 274°
2026-04-21 15:41 -51.86499 -61.74853 39782 ft 314 kts 274°
2026-04-21 15:42 -51.86488 -61.81995 39788 ft 320 kts 274°
2026-04-21 15:42 -51.86474 -61.89220 39779 ft 325 kts 274°
2026-04-21 15:43 -51.86454 -61.96550 39780 ft 329 kts 274°
2026-04-21 15:43 -51.86429 -62.03976 39755 ft 333 kts 274°
2026-04-21 15:44 -51.86399 -62.11493 39756 ft 336 kts 274°
2026-04-21 15:44 -51.86364 -62.19104 39752 ft 339 kts 274°
2026-04-21 15:45 -51.86324 -62.26771 39753 ft 341 kts 274°
2026-04-21 15:45 -51.86278 -62.34452 39754 ft 343 kts 274°
2026-04-21 15:46 -51.86227 -62.42173 39757 ft 343 kts 274°
2026-04-21 15:46 -51.86305 -62.49916 39762 ft 345 kts 270°
2026-04-21 15:47 -51.86966 -62.57570 39760 ft 348 kts 264°
2026-04-21 15:47 -51.87897 -62.65301 39754 ft 348 kts 265°
2026-04-21 15:48 -51.88725 -62.72982 39757 ft 347 kts 266°
2026-04-21 15:48 -51.89448 -62.80688 39755 ft 346 kts 267°
2026-04-21 15:49 -51.90140 -62.88377 39751 ft 346 kts 267°
2026-04-21 15:49 -51.90843 -62.96090 39758 ft 346 kts 267°
2026-04-21 15:50 -51.91550 -63.03791 39764 ft 347 kts 266°
2026-04-21 15:50 -51.92255 -63.11494 39744 ft 348 kts 267°
2026-04-21 15:51 -51.92956 -63.19236 39741 ft 347 kts 267°
2026-04-21 15:51 -51.93649 -63.26950 39728 ft 346 kts 267°
2026-04-21 15:52 -51.94338 -63.34681 39732 ft 346 kts 267°
2026-04-21 15:52 -51.95017 -63.42357 39730 ft 344 kts 267°
2026-04-21 15:53 -51.95689 -63.50016 39725 ft 343 kts 268°
2026-04-21 15:53 -51.96355 -63.57677 39717 ft 343 kts 268°
2026-04-21 15:54 -51.97014 -63.65313 39730 ft 342 kts 269°
2026-04-21 15:54 -51.97664 -63.72908 39735 ft 343 kts 268°
2026-04-21 15:55 -51.98314 -63.80552 39748 ft 342 kts 268°
2026-04-21 15:55 -51.98957 -63.88166 39746 ft 341 kts 268°
2026-04-21 15:56 -51.99596 -63.95798 39730 ft 341 kts 268°
2026-04-21 15:56 -52.00224 -64.03372 39748 ft 341 kts 268°
2026-04-21 15:57 -52.00850 -64.10972 39732 ft 341 kts 269°
2026-04-21 15:57 -52.01475 -64.18626 39715 ft 340 kts 269°
2026-04-21 15:58 -52.02090 -64.26218 39713 ft 341 kts 269°
2026-04-21 15:58 -52.02701 -64.33832 39714 ft 341 kts 269°
2026-04-21 15:59 -52.03306 -64.41419 39704 ft 340 kts 269°
2026-04-21 15:59 -52.03905 -64.49001 39703 ft 339 kts 269°
2026-04-21 16:00 -52.04503 -64.56629 39701 ft 338 kts 268°
2026-04-21 16:00 -52.05091 -64.64200 39699 ft 338 kts 269°
2026-04-21 16:01 -52.05669 -64.71718 39707 ft 338 kts 269°
2026-04-21 16:01 -52.06248 -64.79303 39711 ft 338 kts 269°
2026-04-21 16:02 -52.06818 -64.86827 39708 ft 338 kts 270°
2026-04-21 16:02 -52.07384 -64.94380 39697 ft 338 kts 270°
2026-04-21 16:03 -52.07949 -65.01974 39705 ft 338 kts 270°
2026-04-21 16:03 -52.08503 -65.09482 39692 ft 336 kts 269°
2026-04-21 16:04 -52.09055 -65.17043 39694 ft 337 kts 269°
2026-04-21 16:04 -52.09603 -65.24616 39691 ft 336 kts 270°
2026-04-21 16:05 -52.10142 -65.32130 39688 ft 334 kts 269°
2026-04-21 16:05 -52.10672 -65.39577 39687 ft 333 kts 269°
2026-04-21 16:06 -52.11201 -65.47082 39685 ft 333 kts 270°
2026-04-21 16:06 -52.11720 -65.54529 39690 ft 333 kts 270°
2026-04-21 16:07 -52.12237 -65.62013 39683 ft 332 kts 270°
2026-04-21 16:07 -52.12746 -65.69447 39680 ft 332 kts 270°
2026-04-21 16:08 -52.13501 -65.80602 39679 ft 331 kts 271°
2026-04-21 16:09 -52.13998 -65.88035 39677 ft 331 kts 271°
2026-04-21 16:09 -52.14489 -65.95458 39674 ft 331 kts 271°
2026-04-21 16:10 -52.14978 -66.02900 39675 ft 330 kts 271°
2026-04-21 16:10 -52.15458 -66.10297 39677 ft 330 kts 271°
2026-04-21 16:11 -52.15935 -66.17716 39675 ft 329 kts 271°
2026-04-21 16:11 -52.16406 -66.25118 39666 ft 329 kts 271°
2026-04-21 16:12 -52.16793 -66.31257 39664 ft 329 kts 271°
2026-04-21 16:12 -52.17331 -66.39877 39669 ft 328 kts 272°
2026-04-21 16:13 -52.17791 -66.47307 39662 ft 327 kts 271°
2026-04-21 16:13 -52.18237 -66.54632 39663 ft 328 kts 271°
2026-04-21 16:14 -52.18684 -66.62012 39663 ft 327 kts 271°
2026-04-21 16:14 -52.19124 -66.69372 39658 ft 326 kts 272°
2026-04-21 16:15 -52.19560 -66.76729 39674 ft 326 kts 273°
2026-04-21 16:15 -52.19990 -66.84083 39644 ft 326 kts 273°
2026-04-21 16:16 -52.20415 -66.91424 39655 ft 325 kts 272°
2026-04-21 16:16 -52.20834 -66.98734 39636 ft 325 kts 272°
2026-04-21 16:17 -52.21248 -67.06035 39633 ft 324 kts 272°
2026-04-21 16:17 -52.21658 -67.13354 39646 ft 324 kts 272°
2026-04-21 16:18 -52.22060 -67.20634 39642 ft 325 kts 272°
2026-04-21 16:18 -52.22461 -67.27953 39636 ft 325 kts 273°
2026-04-21 16:19 -52.22856 -67.35250 39607 ft 325 kts 273°
2026-04-21 16:19 -52.23248 -67.42547 39632 ft 324 kts 273°
2026-04-21 16:20 -52.23634 -67.49860 39637 ft 324 kts 273°
2026-04-21 16:20 -52.24015 -67.57144 39617 ft 324 kts 273°
2026-04-21 16:21 -52.24391 -67.64436 39628 ft 324 kts 273°
2026-04-21 16:21 -52.24762 -67.71733 39622 ft 324 kts 274°
2026-04-21 16:22 -52.25130 -67.79040 39637 ft 325 kts 274°
2026-04-21 16:22 -52.25495 -67.86402 39650 ft 328 kts 274°
2026-04-21 16:23 -52.25859 -67.93783 39624 ft 327 kts 274°
2026-04-21 16:23 -52.26219 -68.01150 39619 ft 325 kts 274°
2026-04-21 16:24 -52.26568 -68.08454 39617 ft 325 kts 275°
2026-04-21 16:24 -52.26914 -68.15810 39625 ft 326 kts 274°
2026-04-21 16:25 -52.27255 -68.23122 39618 ft 325 kts 274°
2026-04-21 16:25 -52.27592 -68.30476 39621 ft 326 kts 275°
2026-04-21 16:26 -52.27924 -68.37785 39598 ft 324 kts 275°
2026-04-21 16:26 -52.28252 -68.45104 39624 ft 325 kts 275°
2026-04-21 16:27 -52.28575 -68.52438 39616 ft 324 kts 275°
2026-04-21 16:27 -52.28892 -68.59731 39625 ft 324 kts 275°
2026-04-21 16:28 -52.29204 -68.67033 39619 ft 325 kts 276°
2026-04-21 16:28 -52.29514 -68.74371 39601 ft 324 kts 276°
2026-04-21 16:29 -52.29768 -68.80446 39611 ft 323 kts 276°
2026-04-21 16:29 -52.30117 -68.88967 39604 ft 324 kts 276°
2026-04-21 16:30 -52.30709 -68.96324 39596 ft 338 kts 266°
2026-04-21 16:30 -52.31658 -68.99918 39615 ft 356 kts 255°
2026-04-21 16:30 -52.33037 -69.03314 39594 ft 368 kts 248°
2026-04-21 16:31 -52.36203 -69.09946 39572 ft 370 kts 247°
2026-04-21 16:31 -52.39131 -69.16736 39570 ft 364 kts 251°
2026-04-21 16:32 -52.41768 -69.23733 39562 ft 362 kts 253°
2026-04-21 16:32 -52.44339 -69.30831 39573 ft 363 kts 253°
2026-04-21 16:33 -52.46931 -69.37885 39559 ft 365 kts 252°
2026-04-21 16:33 -52.49593 -69.45025 39568 ft 367 kts 252°
2026-04-21 16:34 -52.52251 -69.52153 39578 ft 368 kts 252°
2026-04-21 16:34 -52.54910 -69.59319 39583 ft 369 kts 252°
2026-04-21 16:35 -52.57555 -69.66486 39588 ft 370 kts 252°
2026-04-21 16:35 -52.60225 -69.73745 39593 ft 372 kts 252°
2026-04-21 16:36 -52.62862 -69.80927 39589 ft 373 kts 252°
2026-04-21 16:36 -52.65556 -69.88288 39575 ft 374 kts 252°
2026-04-21 16:37 -52.68236 -69.95634 39587 ft 377 kts 252°
2026-04-21 16:37 -52.70931 -70.03037 39572 ft 377 kts 252°
2026-04-21 16:38 -52.73619 -70.10443 39569 ft 378 kts 252°
2026-04-21 16:38 -52.76300 -70.17851 39570 ft 380 kts 252°
2026-04-21 16:39 -52.79005 -70.25347 39529 ft 381 kts 252°
2026-04-21 16:39 -52.81687 -70.32803 39563 ft 380 kts 252°
2026-04-21 16:40 -52.84388 -70.40340 39580 ft 381 kts 252°
2026-04-21 16:40 -52.87073 -70.47852 39573 ft 381 kts 252°
2026-04-21 16:41 -52.89308 -70.54120 39555 ft 381 kts 252°
2026-04-21 16:41 -52.92427 -70.62894 39559 ft 381 kts 252°
2026-04-21 16:42 -52.95103 -70.70450 39565 ft 381 kts 252°
2026-04-21 16:42 -52.97767 -70.77994 39547 ft 381 kts 252°
2026-04-21 16:43 -53.00447 -70.85606 39565 ft 382 kts 252°
2026-04-21 16:43 -53.03120 -70.93224 39557 ft 383 kts 252°
2026-04-21 16:44 -53.05810 -71.00911 39555 ft 385 kts 252°
2026-04-21 16:44 -53.08501 -71.08621 39561 ft 385 kts 252°
2026-04-21 16:45 -53.11168 -71.16291 39558 ft 385 kts 252°
2026-04-21 16:45 -53.13856 -71.24040 39528 ft 384 kts 252°
2026-04-21 16:46 -53.16508 -71.31712 39535 ft 383 kts 252°
2026-04-21 16:46 -53.19162 -71.39417 39521 ft 382 kts 252°
2026-04-21 16:47 -53.21784 -71.47051 39514 ft 381 kts 252°
2026-04-21 16:47 -53.23087 -71.50837 39490 ft 368 kts 252°
2026-04-21 16:47 -53.24333 -71.54427 39445 ft 346 kts 252°
2026-04-21 16:47 -53.25521 -71.57890 38943 ft 340 kts 253°
2026-04-21 16:48 -53.26658 -71.61298 38424 ft 329 kts 257°
2026-04-21 16:48 -53.27179 -71.64789 37984 ft 295 kts 277°
2026-04-21 16:48 -53.27741 -71.68218 37517 ft 320 kts 256°
2026-04-21 16:48 -53.29252 -71.71134 37081 ft 351 kts 232°
2026-04-21 16:49 -53.31506 -71.72975 36647 ft 379 kts 208°
2026-04-21 16:49 -53.34201 -71.73341 36217 ft 403 kts 184°
2026-04-21 16:49 -53.36939 -71.72047 35775 ft 416 kts 160°
2026-04-21 16:49 -53.39266 -71.69260 35386 ft 420 kts 135°
2026-04-21 16:50 -53.40903 -71.65329 34981 ft 411 kts 110°
2026-04-21 16:50 -53.42139 -71.61022 34565 ft 408 kts 110°
2026-04-21 16:50 -53.43072 -71.56607 34156 ft 388 kts 92°
2026-04-21 16:50 -53.43254 -71.52286 33557 ft 359 kts 70°
2026-04-21 16:51 -53.42610 -71.48498 32785 ft 327 kts 45°
2026-04-21 16:51 -53.41381 -71.45583 31993 ft 294 kts 25°
2026-04-21 16:51 -53.39861 -71.43559 31134 ft 271 kts 11°
2026-04-21 16:51 -53.38249 -71.42268 30065 ft 249 kts 359°
2026-04-21 16:52 -53.36678 -71.42088 29024 ft 223 kts 342°
2026-04-21 16:52 -53.35061 -71.41576 27962 ft 253 kts
2026-04-21 16:52 -53.33476 -71.40224 26919 ft 266 kts 13°
2026-04-21 16:52 -53.31909 -71.38589 25851 ft 266 kts 15°
2026-04-21 16:53 -53.30374 -71.36963 24778 ft 263 kts 15°
2026-04-21 16:53 -53.28848 -71.35403 23714 ft 260 kts 14°
2026-04-21 16:53 -53.27303 -71.33871 22617 ft 257 kts 13°
2026-04-21 16:53 -53.25800 -71.32405 21559 ft 252 kts 13°
2026-04-21 16:54 -53.24307 -71.30961 20481 ft 247 kts 13°
2026-04-21 16:54 -53.22862 -71.29555 19437 ft 244 kts 15°
2026-04-21 16:54 -53.21416 -71.28164 18387 ft 240 kts 14°
2026-04-21 16:54 -53.19992 -71.26799 17351 ft 236 kts 15°
2026-04-21 16:55 -53.18576 -71.25443 16306 ft 234 kts 16°
2026-04-21 16:55 -53.17177 -71.24104 15275 ft 234 kts 16°
2026-04-21 16:55 -53.15796 -71.22781 14252 ft 232 kts 17°
2026-04-21 16:55 -53.14418 -71.21457 13225 ft 232 kts 17°
2026-04-21 16:56 -53.13031 -71.20128 12193 ft 232 kts 17°
2026-04-21 16:56 -53.11665 -71.18817 11174 ft 232 kts 18°
2026-04-21 16:56 -53.10275 -71.17489 10145 ft 232 kts 18°
2026-04-21 16:56 -53.08891 -71.16166 9112 ft 233 kts 18°
2026-04-21 16:57 -53.07510 -71.14842 8082 ft 233 kts 19°
2026-04-21 16:57 -53.06113 -71.13506 7051 ft 233 kts 20°
2026-04-21 16:57 -53.04730 -71.12183 6160 ft 227 kts 20°
2026-04-21 16:57 -53.03387 -71.10892 5524 ft 226 kts 21°
2026-04-21 16:58 -53.02030 -71.09602 4895 ft 229 kts 22°
2026-04-21 16:58 -53.00649 -71.08289 4292 ft 229 kts 22°
2026-04-21 16:58 -52.99316 -71.07011 4043 ft 219 kts 22°
2026-04-21 16:58 -52.98000 -71.05758 3787 ft 218 kts 22°
2026-04-21 16:59 -52.96680 -71.04507 3542 ft 221 kts 22°
2026-04-21 16:59 -52.95341 -71.03239 3289 ft 223 kts 23°
2026-04-21 16:59 -52.93990 -71.01959 3047 ft 225 kts 24°
2026-04-21 16:59 -52.92642 -71.00672 2977 ft 221 kts 24°
2026-04-21 17:00 -52.91311 -70.99406 2967 ft 218 kts 24°
2026-04-21 17:00 -52.89978 -70.98141 2968 ft 215 kts 23°
2026-04-21 17:00 -52.89119 -70.97329 2974 ft 214 kts 23°
2026-04-21 17:00 -52.87395 -70.95697 2977 ft 212 kts 23°
2026-04-21 17:01 -52.86115 -70.94487 2978 ft 211 kts 24°
2026-04-21 17:01 -52.84849 -70.93282 2981 ft 211 kts 25°
2026-04-21 17:01 -52.83773 -70.91602 2962 ft 223 kts 52°
2026-04-21 17:01 -52.83349 -70.89118 2986 ft 231 kts 80°
2026-04-21 17:02 -52.83353 -70.86446 2978 ft 234 kts 89°
2026-04-21 17:02 -52.83512 -70.83750 2975 ft 235 kts 93°
2026-04-21 17:02 -52.83769 -70.81074 2977 ft 235 kts 97°
2026-04-21 17:02 -52.84133 -70.78460 2978 ft 236 kts 102°
2026-04-21 17:03 -52.84629 -70.75888 2973 ft 237 kts 108°
2026-04-21 17:03 -52.85274 -70.73370 2980 ft 238 kts 114°
2026-04-21 17:03 -52.86071 -70.70951 2969 ft 238 kts 120°
2026-04-21 17:03 -52.87002 -70.68687 2962 ft 239 kts 126°
2026-04-21 17:04 -52.88067 -70.66582 2970 ft 239 kts 133°
2026-04-21 17:04 -52.89251 -70.64660 2966 ft 239 kts 139°
2026-04-21 17:04 -52.90546 -70.62937 2964 ft 239 kts 146°
2026-04-21 17:04 -52.91917 -70.61453 2968 ft 238 kts 152°
2026-04-21 17:05 -52.93395 -70.60176 2971 ft 237 kts 158°
2026-04-21 17:05 -52.94915 -70.59164 2962 ft 236 kts 165°
2026-04-21 17:05 -52.96502 -70.58637 2937 ft 229 kts 190°
2026-04-21 17:05 -52.97877 -70.59622 2968 ft 209 kts 228°
2026-04-21 17:06 -52.98541 -70.61557 2973 ft 188 kts 257°
2026-04-21 17:06 -52.99140 -70.63456 2970 ft 186 kts 243°
2026-04-21 17:06 -52.99697 -70.65310 2956 ft 172 kts 264°
2026-04-21 17:06 -52.99939 -70.67178 2707 ft 158 kts 264°
2026-04-21 17:07 -53.00043 -70.68303 2550 ft 138 kts 271°
2026-04-21 17:07 -53.00037 -70.70172 2148 ft 112 kts 280°
2026-04-21 17:07 -52.99958 -70.71434 1736 ft 110 kts 282°
2026-04-21 17:07 -52.99916 -70.72673 1383 ft 107 kts 271°
2026-04-21 17:08 -53.00006 -70.73867 1253 ft 103 kts 272°
2026-04-21 17:08 -53.00007 -70.75046 1162 ft 101 kts 277°
2026-04-21 17:08 -52.99971 -70.76235 996 ft 107 kts 279°
2026-04-21 17:08 -52.99986 -70.77464 860 ft 104 kts 273°
2026-04-21 17:09 -53.00017 -70.79765 631 ft 100 kts 275°
2026-04-21 17:09 -53.00036 -70.80945 478 ft 102 kts 273°
2026-04-21 17:09 -53.00048 -70.82113 313 ft 100 kts 275°
2026-04-21 17:10 -53.00064 -70.83253 156 ft 99 kts 275°
2026-04-21 17:10 -53.00071 -70.84288 126 ft 73 kts 268°
2026-04-21 17:10 -53.00080 -70.84760 128 ft 17 kts 267°
2026-04-21 17:10 -53.00143 -70.84866 128 ft 14 kts 172°
2026-04-21 17:11 -53.00225 -70.84785 128 ft 13 kts 147°
2026-04-21 17:11 -53.00301 -70.84708 128 ft 12 kts 150°
2026-04-21 17:11 -53.00372 -70.84634 128 ft 11 kts 149°
2026-04-21 17:11 -53.00394 -70.84602 128 ft 10 kts 130°
2026-04-21 17:13 -53.00416 -70.84525 128 ft 5 kts 146°
2026-04-21 17:13 -53.00447 -70.84505 128 ft 3 kts 194°
2026-04-21 17:14 -53.00459 -70.84529 129 ft 1 kts 274°
2026-04-21 17:14 -53.00459 -70.84532 129 ft 0 kts 274°